Weather Roundup
Issued by NWS Springfield, MO

Home | Current Version | Previous Version | Text Only | Print | Product List | Glossary On
Versions: 1 2 3 4 5 6 7 8 9 10 11 12 13 14 15 16 17 18 19 20 21 22 23 24 25 26 27 28 29 30 31 32 33 34 35 36 37 38 39 40 41 42 43 44 45 46 47 48 49 50
000
NZUS99 KSGF 210707
HRRSGF

HOURLY WEATHER
NATIONAL WEATHER SERVICE SPRINGFIELD MO
200 AM CDT THU AUG 21 2014

......SGF CWA......

CITY           SKY/WX    TMP DP  RH WIND       PRES   REMARKS
SPRINGFIELD    CLEAR     76  67  73 S12       29.99F
JOPLIN         CLEAR     78  68  71 S13       29.97S
WEST PLAINS    PTCLDY    75  66  73 SW5       30.04F
ROLLA          CLEAR     73  64  73 S9        29.99R
OSAGE BEACH    CLEAR     75  64  69 S3        29.98S
BRANSON        CLEAR     75  68  78 CALM      30.02F

......SURROUNDING SGF CWA......

CITY           SKY/WX    TMP DP  RH WIND       PRES   REMARKS
CHANUTE        CLEAR     80  68  66 S15       29.93S
PARSONS        CLEAR     77  68  73 S6        29.95S
COFFEYVILLE    CLEAR     80  70  71 S10       29.93S
EMPORIA        CLEAR     78  69  73 S16       29.89R
GROVE OK       CLEAR     79  70  73 S6        29.98S
ROGERS AR      CLEAR     76  68  76 SE9       30.03S
SILOAM SPRINGS CLEAR     75  64  69 S9        30.02S
HARRISON AR    CLEAR     74  70  87 S6        30.03S
NEAR YELLVILLE CLEAR     77  66  69 CALM      30.01S

......KANSAS AND MISSOURI......

CITY           SKY/WX    TMP DP  RH WIND       PRES   REMARKS
KANSAS CTY INT PTCLDY    80  68  66 S14       29.89F
DOWNTOWN KC    PTCLDY    82  67  60 SW17G25   29.89S
COLUMBIA       CLEAR     73  70  90 SE7       29.96F
SEDALIA        CLEAR     79  65  62 S10       29.95F
ST JOSEPH      PTCLDY    79  69  71 S12       29.86F
ST LOUIS       MOCLDY    78  74  87 S7        29.97F
SPIRIT OF STL  CLEAR     72  70  93 CALM      29.95S
KIRKSVILLE     CLEAR     76  70  82 S8        29.93S
WICHITA        PTCLDY    80  66  62 S16       29.87F
TOPEKA         PTCLDY    83  70  64 S14G21    29.86F
OLATHE         CLEAR     77  67  71 S12       29.91S

......TENNESSEE......

CITY           SKY/WX    TMP DP  RH WIND       PRES   REMARKS
MEMPHIS        CLEAR     78  72  81 S6        30.04F
NASHVILLE      PTCLDY    71  70  96 CALM      30.08F

......ARKANSAS.......

CITY           SKY/WX    TMP DP  RH WIND       PRES   REMARKS
FAYETTEVILLE   CLEAR     76  70  82 S9        30.02S
FT SMITH       CLEAR     77  71  82 NE5       29.98S
LITTLE ROCK    CLEAR     78  71  79 S8        30.03R

......OKLAHOMA.......

CITY           SKY/WX    TMP DP  RH WIND       PRES   REMARKS
TULSA          CLEAR     80  70  71 S13       29.92F
PONCA CITY     CLEAR     83  67  58 S10G22    29.89F
MCALESTER      CLEAR     81  70  69 S8        29.97F
OKLAHOMA CITY  PTCLDY    81  67  62 S12       29.92F

......IOWA............

CITY           SKY/WX    TMP DP  RH WIND       PRES   REMARKS
DES MOINES     PTCLDY    77  72  84 S7        29.84S
QUAD CITIES    PTCLDY    69  67  93 E7        29.91F

......ILLINOIS........

CITY           SKY/WX    TMP DP  RH WIND       PRES   REMARKS
QUINCY         CLEAR     74  69  85 S8        29.93F
CHICAGO        CLOUDY    73  64  73 SW5       29.95S




USA.gov is the U.S. government's official web portal to all federal, state and local government web resources and services.